Powrót do katalogu

SCOUT A R/B

AktywnyPO
NORAD 1953·ROCKET BODY·🇺🇸 United States

Wystrzelony Jan 28, 1966 z Vandenberg Space Force Base

Loading…

Następne Przeloty (najbliższe 24 godziny)

TLE

ŚwieżeSource: Space-Track

Epoka: Sep 14, 2026, 05:02 UTC

1 01953U 66005B   26257.20985649  .00000143  00000-0  14131-3 0  9991
2 01953  90.1522 353.9776 0225066 279.9772  77.6056 13.65090354 15039

Śledź SCOUT A R/B w czasie rzeczywistym z AllMySat

Download on the App Store